Location: Newark
(45.7833°N, 9.1833°E)
Time: 00:03:00
(UTC+00:00)

N. Korean satellite - Visible Passes

Search period start: 18 January 2020 00:00
Search period end: 28 January 2020 00:00
Orbit: 454 x 508 km, 97.2° (Epoch: 17 January)

Date Brightness Start Highest point End Pass type
(mag) Time Alt. Az. Time Alt. Az. Time Alt. Az.
18 Jan 10.1 04:05:09 10° ENE 04:05:49 10° E 04:06:28 10° E visible
18 Jan 6.5 05:36:05 10° N 05:39:31 54° WNW 05:42:59 10° SSW visible
19 Jan 6.8 05:10:32 10° NNE 05:14:03 69° ESE 05:17:35 10° S visible
19 Jan 9.7 17:22:59 10° SW 17:25:03 15° W 17:27:07 10° NW visible
20 Jan 8.4 04:45:17 10° NNE 04:48:30 32° E 04:51:43 10° SSE visible
20 Jan 8.0 06:19:14 10° NNW 06:21:40 18° WNW 06:24:08 10° WSW visible
20 Jan 8.7 16:56:21 10° SSW 16:59:23 29° W 17:02:26 10° NNW visible
21 Jan 9.6 04:20:30 10° NE 04:22:51 17° E 04:25:13 10° SE visible
21 Jan 7.2 05:53:08 10° N 05:56:21 33° WNW 05:59:36 10° SW visible
22 Jan 6.4 05:27:24 10° N 05:30:56 71° WNW 05:34:30 10° SSW visible
23 Jan 7.3 05:01:57 10° NNE 05:05:26 53° E 05:08:58 10° S visible
23 Jan 9.6 17:13:52 10° SW 17:16:21 19° W 17:18:51 10° NW visible
24 Jan 8.8 04:36:47 10° NE 04:39:51 26° E 04:42:55 10° SSE visible
24 Jan 7.7 06:10:19 10° NNW 06:13:08 22° WNW 06:15:57 10° WSW visible
24 Jan 8.2 16:47:30 10° SSW 16:50:43 37° W 16:53:57 10° NNW visible
25 Jan 9.9 04:12:17 10° ENE 04:14:10 14° E 04:16:04 10° ESE visible
25 Jan 6.9 05:44:22 10° N 05:47:45 42° WNW 05:51:12 10° SW visible
26 Jan 6.5 05:18:44 10° NNE 05:22:19 90° ESE 05:25:57 10° SSW visible
26 Jan 10.0 17:32:00 10° WSW 17:33:21 12° W 17:34:43 10° WNW visible
27 Jan 7.9 04:53:21 10° NNE 04:56:48 42° E 05:00:15 10° S visible
27 Jan 9.3 17:04:51 10° SSW 17:07:39 23° W 17:10:29 10° NW visible
